ALK181 VCBI-VNKT

Flight info

Callsign ALK181
Flight time N/A
Altitude 39000
Route SAGOR A465 VVZ J26 MALSU/N0437F380 J27 RRC/N0360F240 W106 GGC/N0363F250 W106 PPT/N0435F380 G336 BIPOB/N0434F390 DCT ROMEO ROMEO1G
Aircraft A20N/M-SDE2E3FGHIRWXY/LB1

Departure

Time N/A
Airport Bandaranaike International Colombo Airport (VCBI)

Arrival

Time 2026-04-27 08:35
Airport Tribhuvan International Airport (VNKT)
Time Latitude Longitude Altitude Speed Heading
2026-04-27 05:41 9.21300 80.01817 35814 ft 458 kts
2026-04-27 05:41 9.24473 80.02070 36030 ft 458 kts
2026-04-27 05:41 9.27650 80.02324 36231 ft 458 kts
2026-04-27 05:41 9.30825 80.02578 36432 ft 458 kts
2026-04-27 05:42 9.34000 80.02833 36625 ft 458 kts
2026-04-27 05:42 9.37176 80.03088 36823 ft 458 kts
2026-04-27 05:42 9.40345 80.03342 37012 ft 458 kts
2026-04-27 05:42 9.43522 80.03597 37198 ft 457 kts
2026-04-27 05:43 9.46694 80.03852 37378 ft 457 kts
2026-04-27 05:43 9.49864 80.04106 37556 ft 458 kts
2026-04-27 05:43 9.53043 80.04361 37726 ft 458 kts
2026-04-27 05:43 9.56216 80.04616 37895 ft 458 kts
2026-04-27 05:44 9.59393 80.04871 38048 ft 458 kts
2026-04-27 05:44 9.62571 80.05127 38202 ft 458 kts
2026-04-27 05:44 9.65751 80.05383 38361 ft 459 kts
2026-04-27 05:44 9.68934 80.05639 38510 ft 459 kts
2026-04-27 05:45 9.72115 80.05894 38647 ft 459 kts
2026-04-27 05:45 9.75299 80.06150 38764 ft 459 kts
2026-04-27 05:45 9.78485 80.06407 38866 ft 459 kts
2026-04-27 05:46 9.84797 80.06914 38879 ft 457 kts
2026-04-27 05:46 9.91127 80.07423 38881 ft 456 kts
2026-04-27 05:47 9.97461 80.07932 38872 ft 457 kts
2026-04-27 05:47 10.03806 80.08288 38864 ft 457 kts
2026-04-27 05:48 10.10164 80.08375 38866 ft 457 kts
2026-04-27 05:48 10.16525 80.08426 38865 ft 457 kts
2026-04-27 05:49 10.22882 80.08505 38865 ft 457 kts
2026-04-27 05:49 10.29244 80.08603 38855 ft 457 kts
2026-04-27 05:50 10.35605 80.08707 38857 ft 457 kts
2026-04-27 05:50 10.41966 80.08811 38855 ft 457 kts
2026-04-27 05:51 10.48327 80.08914 38861 ft 457 kts
2026-04-27 05:51 10.54689 80.09017 38862 ft 457 kts
2026-04-27 05:52 10.61051 80.09119 38851 ft 457 kts
2026-04-27 05:52 10.67414 80.09222 38850 ft 457 kts
2026-04-27 05:53 10.73777 80.09327 38848 ft 457 kts
2026-04-27 05:53 10.80143 80.09446 38859 ft 457 kts
2026-04-27 05:54 10.86504 80.09570 38850 ft 457 kts
2026-04-27 05:54 10.92864 80.09694 38849 ft 457 kts
2026-04-27 05:55 10.99225 80.09816 38852 ft 457 kts
2026-04-27 05:55 11.05589 80.09939 38848 ft 457 kts
2026-04-27 05:56 11.11947 80.10060 38850 ft 457 kts
2026-04-27 05:56 11.18331 80.10183 38855 ft 457 kts
2026-04-27 05:57 11.24696 80.10305 38860 ft 457 kts 360°
2026-04-27 05:57 11.31060 80.10428 38845 ft 457 kts 360°
2026-04-27 05:58 11.37427 80.10551 38856 ft 458 kts 360°
2026-04-27 05:58 11.43747 80.10672 38846 ft 458 kts 360°
2026-04-27 05:59 11.50120 80.10795 38850 ft 458 kts 360°
2026-04-27 05:59 11.56491 80.10918 38851 ft 458 kts 360°
2026-04-27 06:00 11.66053 80.11103 38849 ft 458 kts 359°
2026-04-27 06:00 11.72419 80.11225 38846 ft 458 kts 359°
2026-04-27 06:01 11.78782 80.11348 38849 ft 457 kts 359°
2026-04-27 06:01 11.85148 80.11472 38857 ft 457 kts 359°
2026-04-27 06:02 11.91515 80.11657 38849 ft 458 kts
2026-04-27 06:02 11.97882 80.11888 38856 ft 458 kts 360°
2026-04-27 06:03 12.04242 80.12117 38853 ft 458 kts 360°
2026-04-27 06:03 12.10606 80.12342 38846 ft 458 kts 359°
2026-04-27 06:04 12.16971 80.12566 38841 ft 457 kts 359°
2026-04-27 06:04 12.23328 80.12790 38841 ft 457 kts 359°
2026-04-27 06:05 12.29680 80.13017 38847 ft 457 kts 359°
2026-04-27 06:05 12.36036 80.13248 38845 ft 457 kts 359°
2026-04-27 06:06 12.42386 80.13476 38838 ft 457 kts 359°
2026-04-27 06:06 12.48695 80.13699 38840 ft 457 kts 359°
2026-04-27 06:07 12.55088 80.13925 38842 ft 457 kts 358°
2026-04-27 06:07 12.61441 80.14150 38835 ft 457 kts 358°
2026-04-27 06:08 12.67798 80.14375 38832 ft 457 kts 358°
2026-04-27 06:08 12.74152 80.14600 38828 ft 457 kts 358°
2026-04-27 06:09 12.80469 80.14824 38835 ft 457 kts 358°
2026-04-27 06:09 12.86827 80.15049 38823 ft 457 kts 358°
2026-04-27 06:10 12.93187 80.15276 38831 ft 457 kts 359°
2026-04-27 06:10 12.99463 80.16514 38824 ft 465 kts 18°
2026-04-27 06:11 13.05205 80.19637 38832 ft 469 kts 29°
2026-04-27 06:11 13.10706 80.23266 38823 ft 471 kts 31°
2026-04-27 06:12 13.16169 80.26978 38833 ft 471 kts 31°
2026-04-27 06:12 13.21652 80.30671 38826 ft 471 kts 30°
2026-04-27 06:13 13.27150 80.34342 38828 ft 472 kts 30°
2026-04-27 06:13 13.32657 80.38008 38817 ft 472 kts 30°
2026-04-27 06:14 13.38164 80.41675 38827 ft 472 kts 30°
2026-04-27 06:14 13.43669 80.45345 38823 ft 472 kts 30°
2026-04-27 06:15 13.49182 80.49017 38809 ft 472 kts 29°
2026-04-27 06:15 13.54716 80.52659 38849 ft 471 kts 29°
2026-04-27 06:16 13.60265 80.56288 38833 ft 474 kts 30°
2026-04-27 06:16 13.65760 80.60022 38824 ft 473 kts 30°
2026-04-27 06:17 13.71252 80.63750 38822 ft 473 kts 30°
2026-04-27 06:17 13.75832 80.66832 38820 ft 473 kts 30°
2026-04-27 06:18 13.82281 80.71153 38822 ft 473 kts 30°
2026-04-27 06:18 13.86866 80.74223 38822 ft 473 kts 30°
2026-04-27 06:19 13.92393 80.77927 38820 ft 474 kts 30°
2026-04-27 06:19 13.97912 80.81628 38822 ft 474 kts 29°
2026-04-27 06:20 14.03461 80.85294 38821 ft 473 kts 28°
2026-04-27 06:20 14.09049 80.88883 38826 ft 473 kts 28°
2026-04-27 06:21 14.14643 80.92464 38824 ft 474 kts 28°
2026-04-27 06:21 14.20234 80.96057 38824 ft 474 kts 28°
2026-04-27 06:22 14.25827 80.99660 38822 ft 474 kts 28°
2026-04-27 06:22 14.31413 81.03263 38821 ft 474 kts 28°
2026-04-27 06:23 14.37006 81.06873 38823 ft 474 kts 28°
2026-04-27 06:23 14.42600 81.10484 38820 ft 474 kts 28°
2026-04-27 06:24 14.48198 81.14101 38825 ft 475 kts 28°
2026-04-27 06:24 14.53757 81.17695 38822 ft 475 kts 28°
2026-04-27 06:25 14.59355 81.21316 38824 ft 475 kts 28°
2026-04-27 06:25 14.64953 81.24939 38826 ft 475 kts 28°
2026-04-27 06:26 14.70556 81.28567 38822 ft 475 kts 28°
2026-04-27 06:26 14.76157 81.32197 38822 ft 475 kts 28°
2026-04-27 06:27 14.81763 81.35832 38824 ft 476 kts 28°
2026-04-27 06:27 14.87368 81.39469 38823 ft 476 kts 28°
2026-04-27 06:28 14.92972 81.43107 38820 ft 476 kts 28°
2026-04-27 06:28 14.98580 81.46750 38822 ft 476 kts 28°
2026-04-27 06:29 15.04187 81.50395 38824 ft 476 kts 28°
2026-04-27 06:29 15.09798 81.54045 38821 ft 476 kts 27°
2026-04-27 06:30 15.15405 81.57694 38823 ft 476 kts 27°
2026-04-27 06:30 15.21019 81.61351 38824 ft 477 kts 27°
2026-04-27 06:31 15.26597 81.64988 38824 ft 477 kts 27°
2026-04-27 06:31 15.32249 81.68674 38825 ft 477 kts 27°
2026-04-27 06:32 15.37828 81.72314 38823 ft 477 kts 27°
2026-04-27 06:32 15.43447 81.75984 38825 ft 478 kts 27°
2026-04-27 06:33 15.49076 81.79661 38822 ft 478 kts 27°
2026-04-27 06:33 15.54701 81.83338 38826 ft 478 kts 27°
2026-04-27 06:34 15.60304 81.87063 38822 ft 479 kts 28°
2026-04-27 06:34 15.65887 81.90831 38820 ft 479 kts 28°
2026-04-27 06:35 15.71469 81.94603 38822 ft 479 kts 28°
2026-04-27 06:35 15.77054 81.98372 38823 ft 479 kts 28°
2026-04-27 06:36 15.82643 82.02142 38821 ft 479 kts 28°
2026-04-27 06:36 15.88240 82.05894 38820 ft 479 kts 27°
2026-04-27 06:37 15.93863 82.09603 38826 ft 479 kts 27°
2026-04-27 06:37 15.99490 82.13307 38825 ft 479 kts 27°
2026-04-27 06:38 16.05112 82.17016 38822 ft 479 kts 27°
2026-04-27 06:38 16.10729 82.20729 38821 ft 478 kts 27°
2026-04-27 06:39 16.16303 82.24418 38822 ft 478 kts 27°
2026-04-27 06:39 16.21913 82.28132 38821 ft 478 kts 27°
2026-04-27 06:40 16.27525 82.31851 38821 ft 478 kts 27°
2026-04-27 06:40 16.33132 82.35568 38821 ft 478 kts 27°
2026-04-27 06:41 16.38740 82.39289 38817 ft 478 kts 27°
2026-04-27 06:41 16.44347 82.43012 38818 ft 478 kts 27°
2026-04-27 06:42 16.49948 82.46733 38815 ft 477 kts 27°
2026-04-27 06:42 16.55547 82.50456 38816 ft 477 kts 27°
2026-04-27 06:43 16.61141 82.54178 38812 ft 477 kts 27°
2026-04-27 06:43 16.66730 82.57899 38810 ft 477 kts 27°
2026-04-27 06:44 16.72324 82.61626 38810 ft 477 kts 27°
2026-04-27 06:44 16.77909 82.65351 38811 ft 477 kts 27°
2026-04-27 06:45 16.83493 82.69088 38806 ft 477 kts 27°
2026-04-27 06:45 16.89071 82.72827 38808 ft 477 kts 27°
2026-04-27 06:46 16.94655 82.76569 38808 ft 477 kts 27°
2026-04-27 06:46 17.00230 82.80307 38806 ft 476 kts 27°
2026-04-27 06:47 17.05808 82.84053 38809 ft 477 kts 27°
2026-04-27 06:47 17.11385 82.87803 38812 ft 477 kts 27°
2026-04-27 06:48 17.16960 82.91553 38813 ft 476 kts 27°
2026-04-27 06:48 17.22534 82.95303 38810 ft 476 kts 26°
2026-04-27 06:49 17.28105 82.99054 38809 ft 476 kts 26°
2026-04-27 06:49 17.33674 83.02807 38809 ft 476 kts 26°
2026-04-27 06:50 17.39241 83.06561 38809 ft 476 kts 26°
2026-04-27 06:50 17.44806 83.10317 38808 ft 476 kts 26°
2026-04-27 06:51 17.50369 83.14074 38808 ft 476 kts 26°
2026-04-27 06:51 17.55930 83.17833 38807 ft 476 kts 26°
2026-04-27 06:52 17.61453 83.21568 38800 ft 475 kts 26°
2026-04-27 06:52 17.67043 83.25357 38802 ft 476 kts 27°
2026-04-27 06:53 17.72552 83.29217 38803 ft 476 kts 27°
2026-04-27 06:53 17.78032 83.33125 38800 ft 476 kts 28°
2026-04-27 06:54 17.83503 83.37026 38804 ft 475 kts 27°
2026-04-27 06:54 17.88980 83.40923 38803 ft 476 kts 27°
2026-04-27 06:55 17.94464 83.44820 38802 ft 476 kts 27°
2026-04-27 06:55 17.99942 83.48717 38796 ft 476 kts 27°
2026-04-27 06:56 18.05424 83.52619 38799 ft 476 kts 27°
2026-04-27 06:56 18.10903 83.56523 38795 ft 476 kts 27°
2026-04-27 06:57 18.16380 83.60428 38791 ft 476 kts 27°
2026-04-27 06:57 18.21861 83.64339 38796 ft 476 kts 27°
2026-04-27 06:58 18.30042 83.70183 38793 ft 476 kts 27°
2026-04-27 06:59 18.35520 83.74100 38794 ft 476 kts 27°
2026-04-27 06:59 18.40996 83.78018 38793 ft 476 kts 27°
2026-04-27 07:00 18.46475 83.81941 38796 ft 476 kts 27°
2026-04-27 07:00 18.51956 83.85870 38800 ft 477 kts 27°
2026-04-27 07:01 18.57455 83.89773 38794 ft 476 kts 26°
2026-04-27 07:01 18.62959 83.93657 38800 ft 477 kts 26°
2026-04-27 07:02 18.68475 83.97551 38801 ft 477 kts 26°
2026-04-27 07:02 18.73988 84.01451 38805 ft 477 kts 26°
2026-04-27 07:03 18.79504 84.05359 38802 ft 478 kts 26°
2026-04-27 07:03 18.85028 84.09275 38806 ft 478 kts 26°
2026-04-27 07:04 18.90558 84.13201 38808 ft 479 kts 26°
2026-04-27 07:04 18.96086 84.17127 38804 ft 478 kts 26°
2026-04-27 07:05 19.01608 84.21051 38798 ft 478 kts 26°
2026-04-27 07:05 19.06193 84.24312 38790 ft 478 kts 26°
2026-04-27 07:06 19.11722 84.28245 38802 ft 479 kts 26°
2026-04-27 07:06 19.17252 84.32185 38782 ft 478 kts 26°
2026-04-27 07:07 19.22763 84.36115 38783 ft 478 kts 26°
2026-04-27 07:07 19.28272 84.40046 38767 ft 477 kts 26°
2026-04-27 07:08 19.33780 84.43981 38756 ft 477 kts 26°
2026-04-27 07:08 19.39278 84.47911 38750 ft 476 kts 26°
2026-04-27 07:09 19.44773 84.51840 38744 ft 476 kts 26°
2026-04-27 07:09 19.50259 84.55767 38730 ft 476 kts 26°
2026-04-27 07:10 19.55744 84.59696 38731 ft 476 kts 26°
2026-04-27 07:10 19.61222 84.63624 38727 ft 476 kts 26°
2026-04-27 07:11 19.66703 84.67546 38727 ft 475 kts 25°
2026-04-27 07:11 19.72243 84.71327 38721 ft 473 kts 24°
2026-04-27 07:12 19.77810 84.75046 38719 ft 472 kts 24°
2026-04-27 07:12 19.83371 84.78768 38717 ft 472 kts 24°
2026-04-27 07:13 19.88917 84.82502 38720 ft 472 kts 24°
2026-04-27 07:13 19.94457 84.86242 38716 ft 472 kts 24°
2026-04-27 07:14 19.99995 84.89984 38713 ft 472 kts 24°
2026-04-27 07:14 20.05531 84.93727 38710 ft 471 kts 24°
2026-04-27 07:15 20.11067 84.97472 38714 ft 472 kts 24°
2026-04-27 07:15 20.16601 85.01219 38713 ft 472 kts 24°
2026-04-27 07:16 20.22138 85.04972 38714 ft 472 kts 24°
2026-04-27 07:16 20.27668 85.08725 38715 ft 471 kts 24°
2026-04-27 07:17 20.33192 85.12474 38712 ft 471 kts 24°
2026-04-27 07:17 20.38705 85.16220 38712 ft 470 kts 24°
2026-04-27 07:18 20.44217 85.19970 38711 ft 470 kts 24°
2026-04-27 07:18 20.49686 85.23695 38715 ft 469 kts 24°
2026-04-27 07:19 20.55217 85.27466 38711 ft 468 kts 24°
2026-04-27 07:19 20.60701 85.31207 38716 ft 468 kts 24°
2026-04-27 07:20 20.66180 85.34949 38713 ft 467 kts 24°
2026-04-27 07:20 20.71656 85.38690 38717 ft 467 kts 24°
2026-04-27 07:21 20.77133 85.42435 38724 ft 468 kts 24°
2026-04-27 07:21 20.82704 85.45963 38722 ft 458 kts 14°
2026-04-27 07:21 20.85660 85.47095 38722 ft 446 kts
2026-04-27 07:22 20.88663 85.47656 38620 ft 431 kts 354°
2026-04-27 07:22 20.91624 85.47745 38112 ft 423 kts 349°
2026-04-27 07:22 20.94546 85.47650 37779 ft 420 kts 347°
2026-04-27 07:23 21.00397 85.47241 37736 ft 423 kts 346°
2026-04-27 07:23 21.06274 85.46800 37739 ft 424 kts 346°
2026-04-27 07:24 21.12122 85.46406 37737 ft 424 kts 347°
2026-04-27 07:24 21.18016 85.46036 37740 ft 424 kts 347°
2026-04-27 07:25 21.23913 85.45670 37750 ft 424 kts 347°
2026-04-27 07:25 21.29811 85.45303 37760 ft 424 kts 347°
2026-04-27 07:26 21.35706 85.44935 37764 ft 424 kts 347°
2026-04-27 07:26 21.41597 85.44566 37769 ft 424 kts 347°
2026-04-27 07:27 21.47498 85.44196 37763 ft 425 kts 347°
2026-04-27 07:27 21.53396 85.43826 37777 ft 425 kts 347°
2026-04-27 07:28 21.59300 85.43456 37777 ft 425 kts 347°
2026-04-27 07:28 21.65205 85.43085 37783 ft 425 kts 347°
2026-04-27 07:29 21.71109 85.42715 37787 ft 425 kts 347°
2026-04-27 07:29 21.77019 85.42342 37789 ft 425 kts 347°
2026-04-27 07:30 21.82932 85.41969 37789 ft 426 kts 347°
2026-04-27 07:30 21.88841 85.41597 37787 ft 427 kts 347°
2026-04-27 07:31 21.94789 85.41223 37793 ft 428 kts 347°
2026-04-27 07:31 21.97764 85.41035 37915 ft 429 kts 347°
2026-04-27 07:31 22.00751 85.40845 38069 ft 430 kts 347°
2026-04-27 07:31 22.03740 85.40656 38251 ft 430 kts 347°
2026-04-27 07:32 22.06724 85.40469 38465 ft 430 kts 347°
2026-04-27 07:32 22.12699 85.40094 38155 ft 428 kts 347°
2026-04-27 07:32 22.15665 85.39910 37822 ft 426 kts 347°
2026-04-27 07:33 22.18622 85.39723 37785 ft 427 kts 347°
2026-04-27 07:33 22.24558 85.39345 37778 ft 427 kts 347°
2026-04-27 07:34 22.30498 85.38967 37776 ft 428 kts 347°
2026-04-27 07:34 22.36433 85.38591 37774 ft 428 kts 347°
2026-04-27 07:35 22.42375 85.38217 37777 ft 427 kts 347°
2026-04-27 07:35 22.48303 85.37844 37778 ft 426 kts 347°
2026-04-27 07:36 22.54226 85.37467 37782 ft 427 kts 347°
2026-04-27 07:36 22.60117 85.37092 37781 ft 427 kts 347°
2026-04-27 07:37 22.66054 85.36715 37788 ft 428 kts 347°
2026-04-27 07:37 22.72000 85.36338 37787 ft 428 kts 347°
2026-04-27 07:38 22.77958 85.35959 37798 ft 429 kts 348°
2026-04-27 07:38 22.83917 85.35581 37797 ft 428 kts 348°
2026-04-27 07:39 22.89866 85.35202 37798 ft 428 kts 348°
2026-04-27 07:39 22.95822 85.34822 37792 ft 429 kts 348°
2026-04-27 07:40 23.01792 85.34440 37801 ft 431 kts 348°
2026-04-27 07:40 23.07785 85.34057 37849 ft 433 kts 348°
2026-04-27 07:40 23.10798 85.33863 38001 ft 434 kts 348°
2026-04-27 07:41 23.13814 85.33670 38182 ft 435 kts 348°
2026-04-27 07:41 23.16835 85.33477 38369 ft 435 kts 348°
2026-04-27 07:41 23.19854 85.33285 38548 ft 435 kts 348°
2026-04-27 07:41 23.22874 85.33093 38714 ft 435 kts 348°
2026-04-27 07:42 23.25897 85.32900 38796 ft 436 kts 348°
2026-04-27 07:42 23.31865 85.32209 38804 ft 425 kts 340°
2026-04-27 07:43 23.37614 85.30830 38804 ft 422 kts 338°
2026-04-27 07:43 23.43321 85.29316 38803 ft 422 kts 338°
2026-04-27 07:44 23.49013 85.27781 38797 ft 422 kts 338°
2026-04-27 07:44 23.54706 85.26256 38789 ft 421 kts 338°
2026-04-27 07:45 23.60406 85.24738 38776 ft 422 kts 339°
2026-04-27 07:45 23.66110 85.23221 38762 ft 422 kts 338°
2026-04-27 07:46 23.71813 85.21703 38758 ft 422 kts 338°
2026-04-27 07:46 23.77512 85.20183 38751 ft 422 kts 339°
2026-04-27 07:47 23.83216 85.18661 38738 ft 422 kts 338°
2026-04-27 07:47 23.88911 85.17140 38734 ft 421 kts 338°
2026-04-27 07:48 23.94605 85.15618 38733 ft 421 kts 338°
2026-04-27 07:48 24.00301 85.14097 38727 ft 422 kts 339°
2026-04-27 07:49 24.06002 85.12577 38717 ft 422 kts 339°
2026-04-27 07:49 24.11706 85.11055 38719 ft 422 kts 339°
2026-04-27 07:50 24.16449 85.09789 38714 ft 422 kts 339°
2026-04-27 07:50 24.23081 85.08016 38706 ft 422 kts 339°
2026-04-27 07:51 24.27861 85.06736 38700 ft 422 kts 339°
2026-04-27 07:51 24.34496 85.04960 38691 ft 422 kts 339°
2026-04-27 07:52 24.39281 85.03678 38690 ft 423 kts 339°
2026-04-27 07:52 24.44995 85.02145 38674 ft 423 kts 339°
2026-04-27 07:53 24.50706 85.00611 38670 ft 423 kts 339°
2026-04-27 07:53 24.56419 84.99076 38660 ft 423 kts 339°
2026-04-27 07:54 24.62092 84.97549 38667 ft 423 kts 339°
2026-04-27 07:54 24.67807 84.96010 38671 ft 423 kts 339°
2026-04-27 07:55 24.73614 84.94797 38658 ft 432 kts 349°
2026-04-27 07:55 24.79688 84.95204 38663 ft 442 kts
2026-04-27 07:56 24.85787 84.96218 38661 ft 444 kts
2026-04-27 07:56 24.91888 84.97348 38661 ft 445 kts
2026-04-27 07:57 24.97990 84.98462 38665 ft 444 kts
2026-04-27 07:57 25.04089 84.99549 38666 ft 444 kts
2026-04-27 07:58 25.10178 85.00624 38660 ft 444 kts
2026-04-27 07:58 25.16295 85.01704 38658 ft 444 kts
2026-04-27 07:59 25.22387 85.02783 38660 ft 444 kts
2026-04-27 07:59 25.31590 85.04415 38671 ft 444 kts
2026-04-27 08:00 25.37693 85.05499 38672 ft 444 kts
2026-04-27 08:00 25.43796 85.06581 38683 ft 444 kts
2026-04-27 08:01 25.49853 85.07659 38696 ft 444 kts
2026-04-27 08:01 25.55950 85.08745 38693 ft 443 kts
2026-04-27 08:02 25.62049 85.09012 38696 ft 432 kts 351°
2026-04-27 08:02 25.67999 85.08631 38693 ft 431 kts 349°
2026-04-27 08:03 25.73978 85.08123 38687 ft 431 kts 348°
2026-04-27 08:03 25.79955 85.07605 38683 ft 431 kts 348°
2026-04-27 08:04 25.85932 85.07103 38683 ft 431 kts 349°
2026-04-27 08:04 25.91911 85.06611 38678 ft 431 kts 349°
2026-04-27 08:05 25.97924 85.06118 38687 ft 430 kts 349°
2026-04-27 08:05 26.03858 85.05630 38683 ft 430 kts 349°
2026-04-27 08:06 26.09835 85.05157 38695 ft 431 kts 349°
2026-04-27 08:06 26.15814 85.04713 38698 ft 431 kts 349°
2026-04-27 08:07 26.21802 85.04272 38705 ft 431 kts 349°
2026-04-27 08:07 26.27787 85.03828 38711 ft 431 kts 349°
2026-04-27 08:08 26.33774 85.03382 38713 ft 431 kts 349°
2026-04-27 08:08 26.39761 85.02934 38717 ft 431 kts 349°
2026-04-27 08:09 26.45744 85.02486 38724 ft 431 kts 349°
2026-04-27 08:09 26.51732 85.02037 38725 ft 431 kts 349°
2026-04-27 08:10 26.57716 85.01588 38735 ft 431 kts 349°
2026-04-27 08:10 26.63717 85.01269 38737 ft 433 kts 352°
2026-04-27 08:11 26.69747 85.01157 38745 ft 433 kts 352°
2026-04-27 08:11 26.75777 85.01073 38751 ft 433 kts 352°
2026-04-27 08:12 26.81794 85.00969 38752 ft 432 kts 352°
2026-04-27 08:12 26.87804 85.00945 38754 ft 435 kts 357°
2026-04-27 08:13 26.93805 85.02394 38765 ft 448 kts 11°
2026-04-27 08:13 26.99663 85.04860 38767 ft 456 kts 21°
2026-04-27 08:14 27.02372 85.06768 38768 ft 464 kts 32°
2026-04-27 08:14 27.04740 85.09247 38470 ft 468 kts 44°
2026-04-27 08:14 27.06654 85.12263 37527 ft 483 kts 58°
2026-04-27 08:14 27.08010 85.15747 36730 ft 491 kts 68°
2026-04-27 08:15 27.09102 85.19385 35988 ft 494 kts 69°
2026-04-27 08:15 27.10155 85.23061 35195 ft 497 kts 69°
2026-04-27 08:15 27.11223 85.26781 34300 ft 503 kts 69°
2026-04-27 08:15 27.12305 85.30529 33386 ft 506 kts 69°
2026-04-27 08:16 27.13376 85.34231 32872 ft 490 kts 69°
2026-04-27 08:16 27.14414 85.37823 32150 ft 480 kts 68°
2026-04-27 08:16 27.15436 85.41350 31474 ft 469 kts 68°
2026-04-27 08:16 27.16433 85.44790 30860 ft 458 kts 68°
2026-04-27 08:17 27.17408 85.48156 30259 ft 449 kts 68°
2026-04-27 08:17 27.18364 85.51455 29625 ft 440 kts 68°
2026-04-27 08:17 27.19300 85.54689 28991 ft 430 kts 68°
2026-04-27 08:17 27.20212 85.57843 28417 ft 420 kts 68°
2026-04-27 08:18 27.21106 85.60937 27832 ft 412 kts 68°
2026-04-27 08:18 27.21983 85.63973 27249 ft 406 kts 68°
2026-04-27 08:18 27.22848 85.66968 26672 ft 399 kts 68°
2026-04-27 08:18 27.23698 85.69915 26114 ft 394 kts 68°
2026-04-27 08:19 27.24533 85.72815 25564 ft 388 kts 68°
2026-04-27 08:19 27.25350 85.75650 25018 ft 384 kts 68°
2026-04-27 08:19 27.26349 85.78437 24418 ft 375 kts 55°
2026-04-27 08:19 27.27859 85.80689 23911 ft 359 kts 37°
2026-04-27 08:20 27.29856 85.82262 23396 ft 345 kts 19°
2026-04-27 08:20 27.32143 85.83053 22816 ft 337 kts
2026-04-27 08:20 27.34456 85.83310 22356 ft 332 kts 359°
2026-04-27 08:20 27.36761 85.83453 21886 ft 332 kts 359°
2026-04-27 08:21 27.39069 85.83584 21377 ft 333 kts 359°
2026-04-27 08:21 27.41386 85.83721 20872 ft 334 kts 360°
2026-04-27 08:21 27.43710 85.83864 20371 ft 336 kts
2026-04-27 08:21 27.46018 85.84010 19870 ft 337 kts
2026-04-27 08:22 27.48360 85.84162 19488 ft 334 kts
2026-04-27 08:22 27.50667 85.84212 19070 ft 331 kts 353°
2026-04-27 08:22 27.52869 85.83602 18660 ft 326 kts 334°
2026-04-27 08:22 27.54707 85.82139 18172 ft 325 kts 313°
2026-04-27 08:23 27.55931 85.79966 17658 ft 327 kts 294°
2026-04-27 08:23 27.56686 85.77564 17191 ft 324 kts 289°
2026-04-27 08:23 27.57337 85.75168 16707 ft 323 kts 288°
2026-04-27 08:23 27.57988 85.72743 16227 ft 324 kts 288°
2026-04-27 08:24 27.58647 85.70316 15813 ft 321 kts 288°
2026-04-27 08:24 27.59299 85.67938 15421 ft 317 kts 288°
2026-04-27 08:24 27.59958 85.65545 14829 ft 320 kts 287°
2026-04-27 08:24 27.60467 85.63138 14557 ft 312 kts 276°
2026-04-27 08:25 27.60315 85.60716 14142 ft 311 kts 256°
2026-04-27 08:25 27.59628 85.58402 13711 ft 311 kts 250°
2026-04-27 08:25 27.58835 85.56154 13123 ft 307 kts 249°
2026-04-27 08:25 27.58036 85.53929 12421 ft 305 kts 249°
2026-04-27 08:26 27.57254 85.51733 11883 ft 298 kts 249°
2026-04-27 08:26 27.56494 85.49580 11423 ft 295 kts 250°
2026-04-27 08:26 27.55738 85.47423 10963 ft 296 kts 249°
2026-04-27 08:26 27.54981 85.45262 10509 ft 297 kts 250°
2026-04-27 08:27 27.54224 85.43093 10056 ft 298 kts 250°
2026-04-27 08:27 27.53462 85.40915 9563 ft 299 kts 249°
2026-04-27 08:27 27.52702 85.38738 9055 ft 298 kts 250°
2026-04-27 08:27 27.51952 85.36594 8743 ft 290 kts 249°
2026-04-27 08:28 27.51229 85.34530 8665 ft 275 kts 250°
2026-04-27 08:28 27.50550 85.32589 8647 ft 256 kts 250°
2026-04-27 08:28 27.49921 85.30786 8659 ft 239 kts 250°
2026-04-27 08:28 27.49328 85.29087 8669 ft 229 kts 250°
2026-04-27 08:29 27.48750 85.27426 8678 ft 228 kts 250°
2026-04-27 08:29 27.48337 85.25733 8661 ft 218 kts 271°
2026-04-27 08:29 27.48816 85.24225 8501 ft 203 kts 313°
2026-04-27 08:29 27.50027 85.23499 8188 ft 200 kts 346°
2026-04-27 08:30 27.51392 85.23360 7952 ft 194 kts 358°
2026-04-27 08:30 27.52715 85.23500 7722 ft 189 kts
2026-04-27 08:30 27.53977 85.23869 7487 ft 186 kts 17°
2026-04-27 08:30 27.55147 85.24461 7246 ft 182 kts 27°
2026-04-27 08:31 27.56141 85.25220 7098 ft 164 kts 35°
2026-04-27 08:31 27.56986 85.26002 6934 ft 152 kts 38°
2026-04-27 08:31 27.57781 85.26766 6747 ft 150 kts 39°
2026-04-27 08:31 27.58535 85.27599 6651 ft 153 kts 46°
2026-04-27 08:32 27.59204 85.28547 6451 ft 155 kts 53°
2026-04-27 08:32 27.59823 85.29536 6250 ft 154 kts 53°
2026-04-27 08:32 27.60456 85.30503 6023 ft 153 kts 49°
2026-04-27 08:32 27.61166 85.31380 5823 ft 151 kts 41°
2026-04-27 08:33 27.61956 85.32129 5641 ft 148 kts 33°
2026-04-27 08:33 27.62823 85.32754 5440 ft 147 kts 25°
2026-04-27 08:33 27.63429 85.33093 5330 ft 146 kts 22°
2026-04-27 08:33 27.64375 85.33533 5133 ft 149 kts 19°
2026-04-27 08:34 27.65353 85.33967 5030 ft 152 kts 19°
2026-04-27 08:34 27.66334 85.34402 4792 ft 152 kts 22°
2026-04-27 08:34 27.67319 85.34844 4593 ft 154 kts 21°
2026-04-27 08:34 27.67992 85.35152 4426 ft 155 kts 21°
2026-04-27 08:35 27.68947 85.35575 4342 ft 138 kts 22°
2026-04-27 08:35 27.69561 85.35865 4361 ft 52 kts 22°
2026-04-27 08:35 27.69662 85.35913 4363 ft 0 kts 21°
2026-04-27 08:35 27.69684 85.35923 4352 ft 10 kts 22°
2026-04-27 08:36 27.69751 85.35954 4364 ft 9 kts 22°
2026-04-27 08:36 27.69800 85.35978 4360 ft 6 kts 22°
2026-04-27 08:36 27.69847 85.35997 4363 ft 10 kts 10°
2026-04-27 08:36 27.69906 85.35950 4367 ft 13 kts 285°
2026-04-27 08:37 27.69926 85.35855 4364 ft 12 kts 290°
2026-04-27 08:37 27.69939 85.35817 4363 ft 0 kts 292°